Location: Carri�res
(48.9069°N, 2.1792°E)
Time: 04:13:09
(UTC+00:00)

H-2A R/B - Pass Details

Date: 17 January 2021
Orbit: 734 x 836 km, 98.2° (Epoch: 26 February)

Event Time Altitude Azimuth Distance (km) Brightness Sun altitude
Rises 19:44:37 0° 203° (SSW) 3,162 5.4 -32.2°
Reaches altitude 10° 19:47:23 10° 219° (SW) 2,254 4.8 -32.6°
Maximum altitude 19:51:10 22° 269° (W) 1,617 4.3 -33.2°
Drops below altitude 10° 19:55:02 10° 320° (NW) 2,306 5.0 -33.9°
Sets 19:57:54 0° 335° (NNW) 3,257 5.6 -34.3°
